Vidsel, Sweden

1:56 AM CEST on May 25, 2017 (GMT +0200)
Vidsel Air Base

Weather History for ESPE - February, 2013

Change the Weather History Date:

Sunday, February 24, 2013

  Actual Average Record
Temperature  
Mean Temperature 33 °F -  
Max Temperature 42 °F - - ()
Min Temperature 24 °F - - ()
Degree Days  
Heating Degree Days 32    
Moisture  
Dew Point 29 °F    
Average Humidity 75    
Maximum Humidity 100    
Minimum Humidity 65    
Precipitation  
Precipitation 0.00 in - - ()
Sea Level Pressure  
Sea Level Pressure 30.17 in    
Wind  
Wind Speed 4 mph ()    
Max Wind Speed 9 mph    
Max Gust Speed -    
Visibility 6.2 miles    
Events      
T = Trace of Precipitation, MM = Missing Value Source: Averaged Metar Reports

Daily Weather History Graph

Daily Weather History Graph

Search for Another Location

Airport or City:

Trip Planner

Search our weather history database for the weather conditions in past years. The results will help you decide how hot, cold, wet, or windy it might be!

Date:

Astronomy

Feb. 24, 2013 Rise Set
Actual Time 7:10 AM CET 4:36 PM CET
Civil Twilight 6:17 AM CET 5:28 PM CET
Nautical Twilight 5:19 AM CET 6:27 PM CET
Astronomical Twilight 4:19 AM CET 7:27 PM CET
Moon 3:19 PM CET 6:14 AM CET
Length of Visible Light 11h 10m
Length of Day
9h 25m
Waxing Gibbous, 98% of the Moon is Illuminated
Feb 24
Waxing Gibbous
Feb 25
Full
Mar 4
Last Quarter
Mar 11
New
Mar 19
First Quarter

Hourly Weather History & Observations

Time (CET) Temp. Windchill Dew Point Humidity Pressure Visibility Wind Dir Wind Speed Gust Speed Precip Events Conditions
12:20 AM 30.2 °F - 26.6 °F 86% 30.15 in 6.2 mi Calm Calm - N/A   Unknown
12:50 AM 26.6 °F - 24.8 °F 93% 30.15 in 6.2 mi Variable 1.2 mph - N/A   Unknown
1:50 AM 24.8 °F - 24.8 °F 100% 30.15 in 6.2 mi Variable 1.2 mph - N/A   Unknown
2:20 AM 26.6 °F 22.6 °F 26.6 °F 100% 30.15 in 6.2 mi West 3.5 mph - N/A   Mist
2:50 AM 28.4 °F 24.6 °F 26.6 °F 93% 30.15 in 6.2 mi WNW 3.5 mph - N/A   Unknown
3:20 AM 32.0 °F 27.5 °F 26.6 °F 80% 30.15 in 6.2 mi West 4.6 mph - N/A   Unknown
3:50 AM 30.2 °F 25.4 °F 26.6 °F 86% 30.12 in 6.2 mi West 4.6 mph - N/A   Unknown
4:20 AM 26.6 °F 20.0 °F 24.8 °F 93% 30.12 in 6.2 mi WNW 5.8 mph - N/A   Unknown
4:50 AM 32.0 °F 27.5 °F 28.4 °F 87% 30.12 in 6.2 mi West 4.6 mph - N/A   Unknown
5:20 AM 33.8 °F 29.6 °F 26.6 °F 75% 30.12 in 6.2 mi WNW 4.6 mph - N/A   Unknown
5:50 AM 33.8 °F 27.7 °F 28.4 °F 81% 30.12 in 6.2 mi West 6.9 mph - N/A   Unknown
6:20 AM 32.0 °F 27.5 °F 26.6 °F 80% 30.12 in 6.2 mi West 4.6 mph - N/A   Unknown
6:50 AM 35.6 °F 28.6 °F 28.4 °F 75% 30.12 in 6.2 mi West 9.2 mph - N/A   Unknown
7:20 AM 35.6 °F 29.2 °F 28.4 °F 75% 30.12 in 6.2 mi West 8.1 mph - N/A   Unknown
7:50 AM 35.6 °F 29.9 °F 28.4 °F 75% 30.12 in 6.2 mi West 6.9 mph - N/A   Unknown
8:20 AM 35.6 °F - 28.4 °F 75% 30.12 in 6.2 mi Variable 2.3 mph - N/A   Unknown
8:50 AM 35.6 °F - 28.4 °F 75% 30.12 in 6.2 mi Variable 2.3 mph - N/A   Unknown
9:20 AM 37.4 °F 32.1 °F 28.4 °F 70% 30.12 in 6.2 mi West 6.9 mph - N/A   Unknown
9:50 AM 39.2 °F 34.2 °F 28.4 °F 65% 30.12 in 6.2 mi West 6.9 mph - N/A   Unknown
10:20 AM 39.2 °F 33.6 °F 30.2 °F 70% 30.12 in 6.2 mi West 8.1 mph - N/A   Unknown
10:50 AM 39.2 °F 33.6 °F 30.2 °F 70% 30.15 in 6.2 mi West 8.1 mph - N/A   Unknown
11:20 AM 41.0 °F 36.4 °F 30.2 °F 65% 30.15 in 6.2 mi WSW 6.9 mph - N/A   Unknown
11:50 AM 41.0 °F 35.8 °F 30.2 °F 65% 30.15 in 6.2 mi West 8.1 mph - N/A   Unknown
12:20 PM 41.0 °F 36.4 °F 30.2 °F 65% 30.15 in 6.2 mi West 6.9 mph - N/A   Unknown
12:50 PM 42.8 °F 38.6 °F 32.0 °F 66% 30.15 in 6.2 mi West 6.9 mph - N/A   Unknown
1:20 PM 42.8 °F 38.0 °F 32.0 °F 66% 30.15 in 6.2 mi West 8.1 mph - N/A   Unknown
1:50 PM 42.8 °F 38.0 °F 32.0 °F 66% 30.15 in 6.2 mi West 8.1 mph - N/A   Unknown
2:20 PM 42.8 °F 37.5 °F 32.0 °F 66% 30.15 in 6.2 mi West 9.2 mph - N/A   Scattered Clouds
2:50 PM 41.0 °F 36.4 °F 32.0 °F 70% 30.15 in 6.2 mi West 6.9 mph - N/A   Mostly Cloudy
3:20 PM 41.0 °F 35.2 °F 32.0 °F 70% 30.15 in 6.2 mi West 9.2 mph - N/A   Scattered Clouds
3:50 PM 41.0 °F 35.8 °F 32.0 °F 70% 30.15 in 6.2 mi West 8.1 mph - N/A   Partly Cloudy
4:20 PM 41.0 °F 35.8 °F 32.0 °F 70% 30.18 in 6.2 mi WNW 8.1 mph - N/A   Mostly Cloudy
4:50 PM 41.0 °F 35.2 °F 30.2 °F 65% 30.18 in 6.2 mi West 9.2 mph - N/A   Scattered Clouds
5:20 PM 41.0 °F 35.8 °F 30.2 °F 65% 30.18 in 6.2 mi West 8.1 mph - N/A   Overcast
5:50 PM 39.2 °F 34.2 °F 30.2 °F 70% 30.18 in 6.2 mi WNW 6.9 mph - N/A   Scattered Clouds
6:20 PM 39.2 °F - 30.2 °F 70% 30.18 in 6.2 mi Variable 2.3 mph - N/A   Unknown
6:50 PM 39.2 °F 33.6 °F 30.2 °F 70% 30.21 in 6.2 mi West 8.1 mph - N/A   Unknown
7:20 PM 37.4 °F 33.8 °F 28.4 °F 70% 30.21 in 6.2 mi West 4.6 mph - N/A   Unknown
7:50 PM 37.4 °F 33.8 °F 28.4 °F 70% 30.24 in 6.2 mi West 4.6 mph - N/A   Unknown
8:20 PM 35.6 °F 32.8 °F 28.4 °F 75% 30.24 in 6.2 mi West 3.5 mph - N/A   Unknown
8:50 PM 33.8 °F 30.8 °F 26.6 °F 75% 30.24 in 6.2 mi NW 3.5 mph - N/A   Unknown
9:20 PM 33.8 °F - 28.4 °F 81% 30.24 in 6.2 mi Variable 1.2 mph - N/A   Unknown
9:50 PM 33.8 °F - 28.4 °F 81% 30.24 in 6.2 mi Variable 2.3 mph - N/A   Unknown
10:20 PM 32.0 °F 28.7 °F 26.6 °F 80% 30.24 in 6.2 mi WNW 3.5 mph - N/A   Unknown
10:50 PM 33.8 °F 29.6 °F 26.6 °F 75% 30.27 in 6.2 mi WNW 4.6 mph - N/A   Unknown
11:20 PM 33.8 °F 30.8 °F 26.6 °F 75% 30.27 in 6.2 mi WNW 3.5 mph - N/A   Unknown
11:50 PM 33.8 °F 30.8 °F 26.6 °F 75% 30.27 in 6.2 mi West 3.5 mph - N/A   Unknown